Miscellaneous Local Product
Issued by NWS Hastings, NE

Home | Current Version | Previous Version | Text Only | Print | Product List | Glossary On
Versions: 1 2 3 4 5 6 7 8 9 10 11 12 13 14 15 16 17 18 19 20 21 22 23 24 25 26 27 28 29 30 31 32 33 34 35 36 37 38 39 40 41 42 43 44 45 46 47 48 49 50
000
AXUS43 KGID 070202
MISGRI

GID CWA HOURLY WEATHER ROUNDUP
NATIONAL WEATHER SERVICE HASTINGS NE
800 PM CST FRI MAR 06 2015

NOTE: "FAIR" INDICATES FEW OR NO CLOUDS BELOW 12,000 FEET WITH NO
SIGNIFICANT WEATHER AND/OR OBSTRUCTIONS TO VISIBILITY.

...SOUTH CENTRAL NEBRASKA...

CITY           SKY/WX    TMP DP  RH WIND       PRES   REMARKS
GRAND ISLAND   CLEAR     45  18  34 CALM      30.12S
HASTINGS       CLEAR     47  16  29 SW5       30.12F
KEARNEY        CLEAR     48  18  29 SW8       30.13S
ORD            PTCLDY    46  14  27 NW6       30.10R
YORK           PTCLDY    45  19  36 SW6       30.12S
AURORA         CLEAR     47  18  32 SW3       30.11S
LEXINGTON      CLEAR     38  15  38 W10       30.14S WCI  31
HOLDREGE       CLEAR     44  16  32 SW3       30.15R
HEBRON         CLEAR     46  16  30 SW6       30.15S

...NEBRASKA PANHANDLE...

CITY           SKY/WX    TMP DP  RH WIND       PRES   REMARKS
CHADRON        PTCLDY    37  24  59 W10       30.17R WCI  30
ALLIANCE       CLEAR     32  15  49 W14       30.17R WCI  22
SCOTTSBLUFF    CLEAR     40  22  48 W9        30.21R WCI  34
SIDNEY         CLEAR     41  19  41 NW13      30.22R

...WESTERN AND NORTH CENTRAL NEBRASKA...

CITY           SKY/WX    TMP DP  RH WIND       PRES   REMARKS
VALENTINE      CLEAR     37  20  50 W8        30.11R WCI  31
AINSWORTH      CLEAR     38  17  42 SW9       30.10S WCI  31
ONEILL         CLEAR     49  18  29 W7        30.10R
BROKEN BOW     CLEAR     46  14  27 NW10      30.12S
IMPERIAL         N/A     46  14  27 NW7       30.19R
NORTH PLATTE   CLEAR     38  14  37 CALM      30.15S
MCCOOK         CLEAR     50  16  25 SW7       30.16S

...EASTERN NEBRASKA...

CITY           SKY/WX    TMP DP  RH WIND       PRES   REMARKS
NORFOLK        PTCLDY    42  16  34 SW6       30.08S
SO SIOUX CITY  CLOUDY    45  22  40 E3        30.10S
TEKAMAH        CLOUDY    41  21  44 CALM      30.11R
COLUMBUS       CLOUDY    39  14  35 CALM      30.12S
ALBION         MOCLDY    40  11  30 CALM      30.10S
OMAHA EPPLEY   MOCLDY    44  20  38 N5        30.11R
OFFUTT AFB     MOCLDY    37  23  57 NW2       30.10S
MILLARD        MOCLDY    45  22  39 CALM      30.11R
LINCOLN        MOCLDY    44  18  35 S3        30.13S
NEBRASKA CITY  PTCLDY    43   8  24 SW9       30.13S
BEATRICE       PTCLDY    42  17  37 SW7       30.14S
FALLS CITY     CLEAR     44  18  35 SW8       30.15S

...NORTHERN KANSAS...

CITY           SKY/WX    TMP DP  RH WIND       PRES   REMARKS
GOODLAND       CLEAR     45  21  38 SW12      30.23R
HILL CITY      CLEAR     48  14  25 W8        30.19R
NORTON         CLEAR     43   9  24 SW5       30.17R
PHILLIPSBURG   CLEAR     48  18  29 CALM      30.17S
SMITH CENTER   CLEAR     50  18  27 SW5       30.17S
BELOIT         CLEAR     45  16  31 CALM      30.16F
HAYS           CLEAR     46  16  29 W10       30.20S
RUSSELL        CLEAR     43  16  33 SW6       30.18R
CONCORDIA      PTCLDY    48  18  30 SW8       30.16F
SALINA         CLEAR     46  20  35 SW10      30.20R
TOPEKA         CLEAR     50  26  39 S6        30.21R



USA.gov is the U.S. government's official web portal to all federal, state and local government web resources and services.